Location: Unspecified
(34.4950°S, 58.5160°W)
Time: 01:18:33
(UTC+00:00)

Daily predictions for brighter satellites

Satellite Brightness Start Highest point End
(mag) Time Altitude Azimuth Time Altitude Azimuth Time Altitude Azimuth
SL-16 R/B 3.9 00:03:03 10° NW 00:06:02 28° WNW 00:06:02 28° WNW
Milstar 3 Cent rocket 4.2 07:40:01 46° NNW 07:40:01 46° NNW 07:47:06 10° NE
USA 215 4.5 07:40:22 10° ESE 07:46:19 36° NE 07:49:21 24° N
Cosmos 2237 Rocket 3.5 07:53:14 33° SE 07:54:25 37° ESE 07:59:39 10° NE
Cosmos 1464 Rocket 4.4 07:54:30 10° N 08:00:43 63° E 08:07:04 10° SSE
Cosmos 2227 Rocket 2.8 08:02:26 53° SE 08:02:26 53° SE 08:06:57 10° SSE
COSMOS 2455 3.1 08:03:10 66° E 08:03:10 66° E 08:08:52 10° SSE
Cosmos 2297 Rocket 3.4 08:07:01 33° SSE 08:07:01 33° SSE 08:10:03 10° SSE
Timation 2 Rocket 4.0 08:14:17 59° N 08:15:39 84° ENE 08:22:23 10° SSE
Lacrosse 5 rocket 3.6 08:21:37 18° SSE 08:21:49 18° SE 08:24:34 10° E
Cosmos 407 Rocket 3.6 08:23:53 65° SSE 08:23:53 65° SSE 08:28:23 10° SSE
Cosmos 1455 4.4 08:35:59 18° SSE 08:35:59 18° SSE 08:37:09 10° SSE
ATLAS 3B R/B 3.9 08:42:52 22° NW 08:42:52 22° NW 08:45:46 10° NNW
ASTEX 1 3.6 08:36:07 10° S 08:41:06 70° E 08:46:01 10° N
CZ-3 Stage 3 3.3 08:43:43 12° NE 08:43:43 12° NE 08:44:07 10° NE
Meteor PRIRODA 4.3 08:39:41 10° NNE 08:42:28 49° NNE 08:42:28 49° NNE
YAOGAN 6 3.6 08:41:21 10° NNE 08:43:38 37° NNE 08:43:38 37° NNE
Envisat 2.9 08:40:12 10° NNE 08:45:19 86° W 08:49:06 19° SSW
Cosmos 2219 3.7 08:46:46 40° SW 08:46:46 40° SW 08:51:17 10° S
Cosmos 1825 3.4 08:45:30 10° S 08:49:08 41° E 08:52:42 10° NNE
Cosmos 1954 Rocket 4.3 08:45:05 10° N 08:50:23 69° ENE 08:55:43 10° SSE
Cosmos 1980 3.7 08:53:35 38° SW 08:55:36 60° WNW 09:01:09 10° N
X-37B 2.9 08:58:23 17° SSE 08:58:23 17° SSE 08:59:38 10° SSE
Cosmos 2263 Rocket 4.1 08:55:28 10° NNE 09:00:24 31° ENE 09:05:22 10° SE
Cosmos 1953 Rocket 3.5 08:58:54 27° SSW 09:01:14 65° W 09:05:38 10° N
Cosmos 389 Rocket 2.3 08:58:07 10° N 09:01:32 86° E 09:05:01 10° S
Nadezhda 4 Rocket 3.9 08:59:16 10° S 09:05:37 74° W 09:11:56 10° N
SL-16 R/B 3.1 09:00:44 10° S 09:06:18 50° ESE 09:11:49 10° NE
NOSS 0 Rocket 4.5 09:05:47 33° W 09:06:51 35° WNW 09:12:20 10° NNW
Cosmos 1408 2.6 09:07:15 53° W 09:07:15 53° W 09:10:41 10° N
Gbstr 26 Del rocket 2.6 09:07:00 54° W 09:07:30 60° SW 09:11:22 10° SE
Meteor 2-10 Rocket 4.1 09:09:12 33° WSW 09:09:12 33° WSW 09:13:16 10° SSW
NOAA 12 4.4 09:06:06 10° NNE 09:11:23 69° ESE 09:16:45 10° S
Okean O Rocket 3.8 09:08:19 10° NE 09:11:55 26° ESE 09:15:35 10° SSE
SL-24 R/B 4.0 09:08:08 10° S 09:12:24 51° WSW 09:16:10 10° NNW
SMAP 3.6 09:10:17 10° NNE 09:14:53 60° ESE 09:19:33 10° S
DELTA 2 R/B (1) 3.9 09:13:55 30° WSW 09:16:30 54° S 09:22:01 10° ESE
deb Chang Zheng 4 3.5 09:12:26 10° N 09:16:36 59° WNW 09:20:48 10° SSW
NOSS 3-1 (C) 4.3 09:10:49 10° SSW 09:16:37 42° SE 09:21:37 10° ENE
H-2A R/B 4.3 09:13:17 10° SE 09:16:58 28° E 09:20:40 10° NNE
Cosmos 1140 Rocket 4.3 09:21:39 25° W 09:23:05 28° WSW 09:27:37 10° S
NOAA 11 4.2 09:17:41 10° NNE 09:23:08 86° ESE 09:28:39 10° SSW
Aureole 3 4.2 09:21:03 10° NNE 09:24:02 43° E 09:27:29 10° SSE
MOS 1 Rocket 3.7 09:20:05 10° SSE 09:25:35 87° ENE 09:31:03 10° NNW
CZ-3 R/B 3.3 09:09:57 10° WNW 09:27:06 43° N 09:32:37 10° ENE
Cosmos 2058 Rocket 3.8 09:24:48 10° NW 09:28:48 30° WSW 09:32:49 10° SSW
USA 215 3.4 09:22:58 10° SE 09:29:24 56° SW 09:35:47 10° WNW
ASTRO E2 3.1 09:27:34 23° WNW 09:29:48 53° N 09:33:42 10° ENE
FengYun 1-2 T 4.4 09:26:52 10° NNE 09:32:33 80° ESE 09:38:15 10° S
Cosmos 2058 3.0 09:30:50 10° SSW 09:35:01 56° W 09:39:09 10° N
Cosmos 2237 Rocket 3.2 09:35:09 17° WSW 09:38:14 26° WNW 09:42:53 10° NNW
ATLAS 3B CENTAUR R/B 3.7 09:36:18 10° WNW 09:38:18 12° NW 09:39:56 10° NNW
AQUARIUS 4.1 09:34:45 10° N 09:39:15 84° WNW 09:43:50 10° SSW
CZ-4B R/B 4.4 09:36:54 10° NW 09:39:54 19° W 09:40:59 18° WSW
Gblst 52 Del rocket 4.4 09:35:56 10° WNW 09:41:39 64° SW 09:48:09 10° SE
Cosmos 1356 4.0 09:39:20 10° SSW 09:42:32 35° W 09:45:41 10° NNW
Cosmos 2227 Rocket 3.6 09:44:22 15° WSW 09:45:49 16° SW 09:49:19 10° SSW
CZ-4C R/B 3.1 09:42:21 10° S 09:45:50 50° WSW 09:49:12 10° NNW
CZ-4B DEB 4.4 09:42:52 10° N 09:48:17 52° W 09:53:45 10° SSW
Cosmos 2297 Rocket 4.0 09:48:54 11° SW 09:49:09 11° SW 09:51:00 10° SSW
COSMOS 2455 4.2 09:46:26 14° W 09:49:17 19° SW 09:53:25 10° S
Spot 2 4.2 09:45:56 10° NNE 09:50:13 88° ESE 09:54:51 10° SSW
Landsat 5 4.0 09:52:14 10° S 09:56:31 42° WSW 10:00:48 10° NW
CZ-4B R/B 3.3 09:56:25 10° SSE 09:59:31 35° E 10:02:38 10° NNE
SKYMED 2 3.7 09:55:10 10° SSE 09:59:36 86° E 10:03:58 10° NNW
Cosmos-2242 3.2 09:56:21 10° N 10:00:44 83° E 10:05:12 10° S
Lacrosse 5 rocket 1.6 09:57:20 10° SW 10:01:11 46° NW 10:04:47 10° NNE
H-2A R/B 2.5 09:57:43 10° N 10:02:06 82° WNW 10:06:24 10° SSW
Cosmos 839 Rocket 4.1 10:00:19 10° NW 10:06:44 58° WSW 10:12:49 10° SSE
Cosmos 1634 Rocket 4.5 10:00:57 10° NW 10:06:46 39° WSW 10:12:42 10° S
Cosmos 1076 Rocket 3.8 10:04:14 10° SSW 10:08:30 48° W 10:12:43 10° NNW
NOSS 2-3 (C) 4.3 10:03:12 10° SSW 10:09:49 90° WNW 10:14:46 10° NNE
CZ-2D R/B 3.3 10:07:18 10° NNE 10:11:10 90° WNW 10:15:06 10° SSW
Cosmos 1633 2.6 10:09:14 10° SSW 10:12:53 60° W 10:16:28 10° N
Cosmos 1939 Rocket 3.2 10:10:01 10° N 10:13:43 43° W 10:17:32 10° SSW
Cosmos 1763 Rocket 3.6 10:10:56 10° SSW 10:16:18 87° WNW 10:21:32 10° NNE
